This is the latest recevied weather packets stored in our database for station/object M0OAB-1. If no packets are shown the sender has not sent any weather packets the latest 10 day(s).
| Time | Temp. | Humidity | Pressure | Rain* | Wind** | Luminosity | Snow |
|---|---|---|---|---|---|---|---|
| 1777847524 | 13.89° C | 70% | 997.2 hPa | 0 mm | - | - | - |
| 1777847165 | 13.89° C | 70% | 997 hPa | 0 mm | - | - | - |
| 1777847044 | 13.89° C | 70% | 997.1 hPa | 0 mm | - | - | - |
| 1777846564 | 13.89° C | 70% | 997 hPa | 0 mm | - | - | - |
| 1777845005 | 14.44° C | 70% | 997 hPa | 0 mm | - | - | - |
| 1777844524 | 14.44° C | 70% | 996.9 hPa | 0 mm | - | - | - |
| 1777844164 | 14.44° C | 70% | 997 hPa | 0 mm | - | - | - |
| 1777843445 | 14.44° C | 70% | 997.2 hPa | 0 mm | - | - | - |
| 1777843324 | 14.44° C | 70% | 996.9 hPa | 0 mm | - | - | - |
| 1777841285 | 14.44° C | 70% | 996.7 hPa | 0 mm | - | - | - |
| 1777840926 | 13.89° C | 70% | 996.7 hPa | 0 mm | - | - | - |
| 1777840684 | 14.44° C | 70% | 996.7 hPa | 0 mm | - | - | - |
| 1777839724 | 14.44° C | 68% | 996.4 hPa | 0 mm | - | - | - |
| 1777837565 | 15° C | 65% | 996.2 hPa | 0 mm | - | - | - |
| 1777836725 | 15.56° C | 64% | 995.9 hPa | 0 mm | - | - | - |
| 1777836365 | 15.56° C | 64% | 995.9 hPa | 0 mm | - | - | - |
| 1777836124 | 15.56° C | 64% | 995.9 hPa | 0 mm | - | - | - |
| 1777835524 | 16.11° C | 63% | 995.7 hPa | 0 mm | - | - | - |
| 1777833485 | 17.22° C | 61% | 995.5 hPa | 0 mm | - | - | - |
| 1777833125 | 17.22° C | 61% | 995.5 hPa | 0 mm | - | - | - |
| 1777832285 | 17.78° C | 57% | 995.4 hPa | 0 mm | - | - | - |
| 1777830605 | 17.78° C | 56% | 995.2 hPa | 0 mm | - | - | - |
| 1777828924 | 18.33° C | 55% | 995 hPa | 0 mm | - | - | - |
| 1777828685 | 18.33° C | 55% | 995.1 hPa | 0 mm | - | - | - |
| 1777827844 | 18.89° C | 53% | 995.1 hPa | 0 mm | - | - | - |
* Rain latest hour (hover to see other rain measurements)
** Current wind speed in m/s (hover to see current wind gust speed)